Location: Unspecified
(22.6800°N, 112.2000°E)
Time: 17:21:56
(UTC+08:00)

ISS - Visible Passes

Search period start: 04 March 2024 00:00
Search period end: 14 March 2024 00:00
Orbit: 414 x 422 km, 51.6° (Epoch: 04 March)

Date Brightness Start Highest point End Pass type
(mag) Time Alt. Az. Time Alt. Az. Time Alt. Az.
07 Mar -1.5 06:16:42 10° N 06:19:29 24° NE 06:22:17 10° ESE visible
08 Mar -0.8 05:29:38 10° NNE 05:31:17 13° NE 05:32:56 10° ENE visible
09 Mar -3.8 06:16:39 10° NW 06:20:01 76° SW 06:23:22 10° SE visible
09 Mar -1.6 19:40:11 10° SSE 19:40:58 13° SSE 19:40:58 13° SSE visible
10 Mar -2.8 05:29:46 19° NNW 05:31:53 45° NE 05:35:07 10° ESE visible
10 Mar -1.5 20:27:29 10° WSW 20:29:04 24° WSW 20:29:04 24° WSW visible
11 Mar -1.1 04:44:34 20° ENE 04:44:34 20° ENE 04:46:21 10° E visible
11 Mar -2.0 06:17:59 10° W 06:20:13 17° SW 06:22:26 10° SSW visible
11 Mar -3.9 19:39:12 10° SW 19:42:30 75° SE 19:44:06 28° NE visible
12 Mar -2.9 05:32:30 33° SW 05:32:30 33° SW 05:35:12 10° SSE visible
12 Mar -0.8 20:29:29 10° WNW 20:31:07 13° NW 20:31:59 12° NNW visible
13 Mar -1.5 19:39:58 10° WSW 19:42:43 24° NW 19:45:30 10° N visible
